Previsão horária em Senden

Hoje, 25 Junho, Sexta-feira

Tempo Temperatura Precipitação Vento Pressão Humidade
00:00 +13°C° 0 mm 4 m/s 720 mmHg 94%
01:00 +12°C° 0 mm 4 m/s 720 mmHg 94%
02:00 +12°C° 0 mm 4 m/s 720 mmHg 94%
03:00 +12°C° 0 mm 4 m/s 720 mmHg 94%
04:00 +12°C° 0 mm 3 m/s 720 mmHg 94%
05:00 +12°C° 0 mm 3 m/s 720 mmHg 93%
06:00 +13°C° 0 mm 3 m/s 720 mmHg 92%
07:00 +13°C° 0 mm 3 m/s 720 mmHg 91%
08:00 +14°C° 0.1 mm 3 m/s 720 mmHg 88%
09:00 +16°C° 0.1 mm 3 m/s 720 mmHg 84%
10:00 +17°C° 0.1 mm 3 m/s 720 mmHg 80%
11:00 +18°C° 0.4 mm 3 m/s 720 mmHg 78%
12:00 +19°C° 0.4 mm 2 m/s 719 mmHg 75%
13:00 +20°C° 0.4 mm 2 m/s 719 mmHg 73%
14:00 +20°C° 0.5 mm 2 m/s 719 mmHg 74%
15:00 +20°C° 0.5 mm 2 m/s 719 mmHg 75%
16:00 +20°C° 0.5 mm 2 m/s 719 mmHg 76%
17:00 +19°C° 0.5 mm 2 m/s 719 mmHg 80%
18:00 +19°C° 0.5 mm 1 m/s 719 mmHg 85%
19:00 +19°C° 0.5 mm 1 m/s 719 mmHg 89%
20:00 +16°C° 0.2 mm 1 m/s 719 mmHg 90%
21:00 +15°C° 0.2 mm 1 m/s 720 mmHg 90%
22:00 +13°C° 0.2 mm 0 m/s 720 mmHg 91%
23:00 +12°C° 0 mm 0 m/s 720 mmHg 91%

Amanhã, 26 Junho, Sábado

Tempo Temperatura Precipitação Vento Pressão Humidade
00:00 +12°C° 0 mm 0 m/s 720 mmHg 91%
01:00 +12°C° 0 mm 0 m/s 719 mmHg 92%
02:00 +11°C° 0 mm 0 m/s 719 mmHg 92%
03:00 +11°C° 0 mm 0 m/s 719 mmHg 93%
04:00 +11°C° 0 mm 0 m/s 719 mmHg 93%
05:00 +12°C° 0 mm 0 m/s 719 mmHg 92%
06:00 +13°C° 0 mm 0 m/s 720 mmHg 91%
07:00 +15°C° 0 mm 1 m/s 720 mmHg 90%
08:00 +18°C° 0 mm 1 m/s 720 mmHg 85%
09:00 +19°C° 0 mm 1 m/s 720 mmHg 80%
10:00 +20°C° 0 mm 2 m/s 720 mmHg 75%
11:00 +20°C° 0 mm 2 m/s 720 mmHg 71%
12:00 +21°C° 0 mm 2 m/s 719 mmHg 68%
13:00 +23°C° 0 mm 1 m/s 719 mmHg 65%
14:00 +23°C° 0 mm 2 m/s 719 mmHg 65%
15:00 +24°C° 0 mm 2 m/s 719 mmHg 65%
16:00 +24°C° 0 mm 2 m/s 719 mmHg 65%
17:00 +23°C° 0 mm 2 m/s 719 mmHg 71%
18:00 +21°C° 0 mm 2 m/s 719 mmHg 77%
19:00 +20°C° 0 mm 2 m/s 718 mmHg 83%
20:00 +19°C° 0 mm 2 m/s 719 mmHg 85%
21:00 +18°C° 0 mm 2 m/s 719 mmHg 88%
22:00 +16°C° 0 mm 2 m/s 719 mmHg 90%
23:00 +16°C° 0 mm 1 m/s 718 mmHg 90%

Depois de amanhã, 27 Junho, Domingo

Tempo Temperatura Precipitação Vento Pressão Humidade
00:00 +15°C° 0 mm 1 m/s 718 mmHg 90%
01:00 +15°C° 0 mm 1 m/s 718 mmHg 91%
02:00 +15°C° 0 mm 1 m/s 718 mmHg 91%
03:00 +14°C° 0 mm 1 m/s 718 mmHg 91%
04:00 +14°C° 0 mm 1 m/s 718 mmHg 92%
05:00 +15°C° 0 mm 1 m/s 718 mmHg 90%
06:00 +16°C° 0 mm 2 m/s 718 mmHg 89%
07:00 +17°C° 0 mm 2 m/s 718 mmHg 87%
08:00 +19°C° 0 mm 2 m/s 718 mmHg 83%
09:00 +21°C° 0 mm 2 m/s 718 mmHg 79%
10:00 +22°C° 0 mm 3 m/s 718 mmHg 74%
11:00 +24°C° 0 mm 3 m/s 718 mmHg 71%
12:00 +25°C° 0 mm 3 m/s 718 mmHg 69%
13:00 +26°C° 0 mm 3 m/s 718 mmHg 66%
14:00 +26°C° 0 mm 3 m/s 718 mmHg 66%
15:00 +27°C° 0 mm 3 m/s 718 mmHg 67%
16:00 +27°C° 0 mm 3 m/s 718 mmHg 67%
17:00 +26°C° 0 mm 3 m/s 717 mmHg 73%
18:00 +25°C° 0 mm 3 m/s 717 mmHg 78%
19:00 +24°C° 0 mm 3 m/s 717 mmHg 84%
20:00 +23°C° 0 mm 2 m/s 717 mmHg 86%
21:00 +20°C° 0 mm 2 m/s 717 mmHg 87%
22:00 +19°C° 0 mm 2 m/s 717 mmHg 89%
23:00 +18°C° 0 mm 2 m/s 717 mmHg 89%

28 Junho, Segunda-feira

Tempo Temperatura Precipitação Vento Pressão Humidade
00:00 +18°C° 0 mm 2 m/s 717 mmHg 89%
01:00 +18°C° 0 mm 1 m/s 717 mmHg 90%
02:00 +18°C° 0 mm 1 m/s 717 mmHg 89%
03:00 +18°C° 0 mm 1 m/s 717 mmHg 89%
04:00 +18°C° 0 mm 1 m/s 717 mmHg 89%
05:00 +19°C° 0 mm 1 m/s 717 mmHg 88%
06:00 +19°C° 0 mm 1 m/s 717 mmHg 87%
07:00 +20°C° 0 mm 1 m/s 717 mmHg 85%
08:00 +21°C° 0 mm 2 m/s 717 mmHg 82%
09:00 +23°C° 0 mm 2 m/s 717 mmHg 78%
10:00 +24°C° 0 mm 3 m/s 717 mmHg 75%
11:00 +25°C° 0 mm 3 m/s 717 mmHg 73%
12:00 +26°C° 0 mm 3 m/s 717 mmHg 71%
13:00 +27°C° 0 mm 3 m/s 717 mmHg 69%
14:00 +28°C° 0 mm 3 m/s 717 mmHg 70%
15:00 +28°C° 0 mm 3 m/s 716 mmHg 71%
16:00 +28°C° 0 mm 4 m/s 716 mmHg 72%
17:00 +27°C° 0.1 mm 4 m/s 715 mmHg 76%
18:00 +26°C° 0.1 mm 3 m/s 715 mmHg 80%
19:00 +25°C° 0.1 mm 3 m/s 714 mmHg 84%
20:00 +24°C° 0.2 mm 3 m/s 714 mmHg 86%
21:00 +23°C° 0.2 mm 2 m/s 714 mmHg 88%
22:00 +21°C° 0.2 mm 2 m/s 714 mmHg 90%
23:00 +19°C° 1.1 mm 3 m/s 714 mmHg 91%

29 Junho, Terça-feira

Tempo Temperatura Precipitação Vento Pressão Humidade
00:00 +17°C° 1.1 mm 5 m/s 715 mmHg 92%
01:00 +15°C° 1.1 mm 6 m/s 716 mmHg 94%
02:00 +15°C° 0 mm 5 m/s 716 mmHg 95%
03:00 +14°C° 0 mm 4 m/s 716 mmHg 95%
04:00 +15°C° 0 mm 2 m/s 716 mmHg 96%
05:00 +15°C° 0 mm 2 m/s 716 mmHg 94%
06:00 +16°C° 0 mm 2 m/s 716 mmHg 92%
07:00 +18°C° 0 mm 1 m/s 716 mmHg 89%
08:00 +19°C° 0 mm 1 m/s 716 mmHg 85%
09:00 +21°C° 0 mm 1 m/s 716 mmHg 80%
10:00 +21°C° 0 mm 2 m/s 716 mmHg 75%
11:00 +23°C° 0 mm 2 m/s 715 mmHg 73%
12:00 +24°C° 0 mm 3 m/s 715 mmHg 71%
13:00 +25°C° 0 mm 3 m/s 715 mmHg 68%
14:00 +25°C° 0 mm 3 m/s 715 mmHg 68%
15:00 +25°C° 0 mm 3 m/s 715 mmHg 69%
16:00 +25°C° 0 mm 4 m/s 715 mmHg 69%
17:00 +23°C° 1.1 mm 4 m/s 714 mmHg 76%
18:00 +21°C° 1.1 mm 4 m/s 714 mmHg 82%
19:00 +20°C° 1.1 mm 4 m/s 714 mmHg 89%
20:00 +18°C° 9.5 mm 4 m/s 715 mmHg 92%
21:00 +16°C° 9.5 mm 5 m/s 716 mmHg 94%
22:00 +15°C° 9.5 mm 5 m/s 716 mmHg 96%
23:00 +15°C° 1.8 mm 5 m/s 717 mmHg 96%

30 Junho, Quarta-feira

Tempo Temperatura Precipitação Vento Pressão Humidade
00:00 +14°C° 1.8 mm 5 m/s 717 mmHg 96%
01:00 +14°C° 1.8 mm 4 m/s 717 mmHg 96%
02:00 +13°C° 1.6 mm 3 m/s 717 mmHg 96%
03:00 +13°C° 1.6 mm 3 m/s 717 mmHg 96%
04:00 +14°C° 1.6 mm 2 m/s 717 mmHg 96%
05:00 +14°C° 0 mm 2 m/s 717 mmHg 95%
06:00 +14°C° 0 mm 1 m/s 717 mmHg 94%
07:00 +15°C° 0 mm 1 m/s 717 mmHg 93%
08:00 +15°C° 0 mm 1 m/s 717 mmHg 90%
09:00 +16°C° 0 mm 2 m/s 717 mmHg 87%
10:00 +16°C° 0 mm 2 m/s 717 mmHg 84%
11:00 +17°C° 0 mm 2 m/s 717 mmHg 83%
12:00 +17°C° 0 mm 2 m/s 717 mmHg 82%
13:00 +17°C° 0 mm 2 m/s 717 mmHg 81%
14:00 +17°C° 0.1 mm 2 m/s 717 mmHg 83%
15:00 +17°C° 0.1 mm 2 m/s 717 mmHg 85%
16:00 +16°C° 0.1 mm 2 m/s 717 mmHg 87%
17:00 +16°C° 0.3 mm 2 m/s 717 mmHg 89%
18:00 +15°C° 0.3 mm 2 m/s 717 mmHg 91%
19:00 +15°C° 0.3 mm 2 m/s 717 mmHg 93%
20:00 +14°C° 0 mm 2 m/s 717 mmHg 93%
21:00 +14°C° 0 mm 2 m/s 717 mmHg 93%
22:00 +13°C° 0 mm 2 m/s 717 mmHg 93%
23:00 +13°C° 0 mm 2 m/s 717 mmHg 92%
Mostrar mais

Necessitamos do seu Consentimento

A Meteoprog e os seus Fornecedores de Serviços podem armazenar e aceder a dados pessoais como cookies, identificadores do dispositivo ou outras tecnologias semelhantes existentes no seu dispositivo e processar estes dados para personalizar conteúdos e anúncios, assim como funcionalidades nas redes sociais e análise de tráfego.

  • Armazenar e/ou aceder a informações no seu dispositivo

    Os cookies, identificadores do dispositivo ou outras informações podem ser armazenados ou acedidos no seu dispositivo, para os fins acima indicados.

  • Anúncios e conteúdos personalizados, medição de anúncios e conteúdos, dados sobre o público-alvo e desenvolvimento de produtos

    Os anúncios e os conteúdos podem ser personalizados com base num perfil. Podem ser adicionados dados adicionais para uma maior personalização dos anúncios e dos conteúdos. A eficácia dos anúncios e dos conteúdos pode ser medida. Podem ser obtidas informações sobre o público que visualizou os anúncios e os conteúdos. Estes dados podem ser usados para desenvolver ou melhorar sistemas, softwares ou a experiência do utilizador.

Ao clicar em "Eu concordo”, permitirá o uso de cookies, identificadores do dispositivo e web beacons mencionados ou outras tecnologias semelhantes. As configurações do navegador do seu dispositivo podem ser alteradas.

Para certos fins, podem ser invocados interesses legítimos ao invés de consentimento. Pode ler mais informação sobre este assunto na nossa Política de Privacidade e Cookies.